Home > Weather > Steinbach > Past weeks

Flag for Canada Weather for the Past 2 Weeks in Steinbach, Manitoba, Canada

Now
94 °F

Extremely hot.


Feels Like: 89 °F
Forecast: 51 / 71 °F
Wind: 3 mph from West

Location: Winnipeg The Forks Man

Current Time: May 5, 2016 at 7:01:45 PM

Latest Report: May 5, 2016 at 6:00 PM


Visibility: N/A

Pressure: 29.62 "Hg

Humidity: 10%

Dew Point: 30 °F

Location of SteinbachLocation

Historic Weather in Steinbach — Graph

°F

Steinbach Temperature Yesterday

Maximum temperature yesterday: 69 °F (at 5:00 PM)
Minimum temperature yesterday: 40 °F (at 6:00 AM)
Average temperature yesterday: 55 °F

High & Low Weather Summary for the Past Weeks

 TemperatureHumidityPressure
High94 °F (May 5, 6:00 PM)80% (May 4, 4:00 AM)30.39 "Hg (May 4, 4:00 AM)
Low29 °F (Apr 22, 6:00 AM)10% (May 5, 6:00 PM)29.62 "Hg (May 5, 6:00 PM)
Average50 °F39%30.09 "Hg
* Reported Apr 20 6:00 PM — May 5 6:00 PM, Steinbach, Weather by CustomWeather, © 2016

Note: Actual official high and low records may vary slightly from our data, if they occured in-between our weather recording intervals... More about our weather records

Advertising

Steinbach Weather History for the Previous 24 Hours

Scroll right to see more
 ConditionsComfort  
Time TempWeatherWind HumidityBarometerVisibility
6:00 PM
Thu, May 5
94 °FExtremely hot.3 mph10%29.62 "HgN/A
5:00 PM92 °FHot.6 mph11%29.63 "HgN/A
4:00 PM92 °FHot.5 mph12%29.65 "HgN/A
3:00 PM93 °FExtremely hot.6 mph11%29.66 "HgN/A
2:00 PM90 °FHot.6 mph12%29.67 "HgN/A
1:00 PM89 °FHot.5 mph15%29.67 "HgN/A
12:00 PM88 °FPleasantly warm.5 mph16%29.68 "HgN/A
11:00 AM83 °FPleasantly warm.3 mph23%29.68 "HgN/A
10:00 AM77 °FMild.6 mph27%29.70 "HgN/A
9:00 AM69 °FMild.5 mph39%29.71 "HgN/A
8:00 AM62 °FRefreshingly cool.7 mph46%29.71 "HgN/A
7:00 AM56 °FRefreshingly cool.6 mph52%29.72 "HgN/A
6:00 AM55 °FRefreshingly cool.5 mph51%29.72 "HgN/A
5:00 AM56 °FRefreshingly cool.6 mph47%29.73 "HgN/A
4:00 AM57 °FRefreshingly cool.6 mph42%29.73 "HgN/A
3:00 AM59 °FRefreshingly cool.8 mph36%29.75 "HgN/A
2:00 AM58 °FRefreshingly cool.7 mph34%29.77 "HgN/A
1:00 AM60 °FRefreshingly cool.7 mph31%29.80 "HgN/A
12:00 AM62 °FRefreshingly cool.7 mph29%29.80 "HgN/A
11:00 PM
Wed, May 4
59 °FRefreshingly cool.3 mph34%29.83 "HgN/A
10:00 PM61 °FRefreshingly cool.2 mph32%29.85 "HgN/A
9:00 PM63 °FMild.3 mph30%29.86 "HgN/A
8:00 PM67 °FMild.2 mph25%29.88 "HgN/A
7:00 PM68 °FMild.2 mph24%29.91 "HgN/A
Weather by CustomWeather, © 2016

See weather overviewHow to use our weather pages